Location: Williams Lake
(52.1170°N, 122.1500°W)
Time: 06:12:30
(UTC-07:00)

Daily predictions for brighter satellites

Satellite Brightness Start Highest point End
(mag) Time Altitude Azimuth Time Altitude Azimuth Time Altitude Azimuth
COSMOS 2428 3.3 22:12:53 10° NW 22:18:27 56° WSW 22:23:58 10° S
SPOT 5 3.9 22:14:41 10° S 22:19:08 45° W 22:23:52 10° NNW
USA 229 DEB 3.9 22:12:44 10° SW 22:19:43 85° NW 22:26:49 10° NE
USA 229 3.9 22:12:51 10° SW 22:19:49 86° NW 22:26:56 10° NE
Nadezhda 1 Rocket 4.3 22:14:20 10° N 22:20:18 53° ENE 22:26:16 10° SSE
Cosmos 2297 Rocket 3.7 22:22:11 10° SE 22:25:48 18° E 22:29:25 10° ENE
Cosmos 2219 Rocket 2.3 22:20:37 10° NNW 22:26:16 85° WSW 22:31:53 10° SSE
Cosmos 1470 Rocket 4.5 22:23:32 10° SSE 22:27:20 31° E 22:31:10 10° NNE
Cosmos 1869 4.3 22:24:09 10° N 22:27:55 35° ENE 22:31:39 10° SE
Cosmos 1726 2.5 22:24:09 10° NNW 22:27:56 68° W 22:31:42 10° S
Cosmos 1437 4.0 22:25:47 10° SSW 22:28:58 45° WNW 22:32:09 10° N
ARGOS 3.3 22:23:55 10° S 22:29:19 77° WSW 22:34:45 10° NNW
NOSS 3-1 (A) 3.7 22:33:26 10° SSW 22:39:09 48° ESE 22:45:33 10° NE
Cosmos 1745 Rocket 4.2 22:33:16 10° S 22:39:19 56° E 22:45:20 10° NNE
CZ-4C R/B 3.0 22:36:04 10° SSE 22:39:32 87° W 22:43:03 10° NNW
ERBS 4.3 22:38:38 10° SSE 22:40:05 12° SE 22:41:31 10° ESE
Cosmos 292 Rocket 4.2 22:38:04 10° NNW 22:42:46 59° WSW 22:47:25 10° S
NOSS 0 Rocket 4.1 22:36:58 10° NW 22:43:07 74° WSW 22:49:15 10° SSE
USA 32 4.1 22:38:52 10° N 22:44:10 83° W 22:49:26 10° S
Cosmos 1980 3.8 22:39:46 10° NNW 22:45:27 83° WSW 22:51:01 10° SSE
Cosmos 1271 Rocket 3.1 22:42:27 10° NNW 22:46:15 62° W 22:50:04 10° S
Landsat 7 4.0 22:45:14 10° S 22:49:59 77° WSW 22:54:48 10° NNW
Meteor 1-4 Rocket 3.3 22:46:22 10° NNW 22:50:04 51° W 22:53:40 10° S
Cosmos 1346 3.9 22:49:27 12° SSE 22:52:00 35° E 22:54:49 10° NNE
Cosmos 2242 Rocket 4.3 22:52:14 10° NNW 22:56:35 52° W 23:00:58 10° S
Cosmos 2219 3.5 22:50:50 10° SW 22:56:36 74° WNW 23:02:23 10° NNE
Cosmos 1703 3.2 22:52:52 10° S 22:56:46 80° E 23:00:43 10° NNE
SL-14 R/B 3.8 22:53:12 10° SSW 22:57:08 61° WNW 23:01:10 10° N
Cosmos 2237 Rocket 2.3 22:52:17 10° NNW 22:58:00 75° WSW 23:03:21 12° SSE
Iridium 2 3.7 22:57:49 10° S 23:01:40 89° ENE 23:05:33 10° N
Lacrosse 4 Rocket 1.9 22:57:33 10° NNW 23:01:56 62° NE 23:06:05 12° SE
ATLAS 2AS CENTAUR R/B 3.6 22:55:09 10° S 23:01:56 37° ESE 23:09:08 10° NE
Cosmos 1862 Rocket 3.5 22:58:26 10° N 23:02:49 89° W 23:06:52 12° S
CZ-4C R/B 3.7 22:57:49 10° NW 23:04:03 44° NNE 23:11:03 10° E
Terra 1.9 23:01:11 10° S 23:05:51 76° WSW 23:10:39 10° NNW
Cosmos 2082 4.1 23:02:32 10° S 23:07:57 45° ESE 23:13:23 10° NE
Cosmos 2181 Rocket 4.4 23:02:01 10° N 23:08:18 57° ENE 23:13:59 13° SSE
Cosmos 1937 Rocket 3.5 23:04:00 10° SSW 23:09:13 76° ESE 23:14:26 10° NNE
Sich 1 3.8 23:05:02 10° SSW 23:09:22 54° WNW 23:13:42 10° N
CARTOSAT-1 3.8 23:05:23 11° S 23:09:35 66° WSW 23:13:54 10° NNW
Spot 4 3.9 23:05:42 12° SSE 23:10:14 86° WSW 23:15:08 10° NNW
Cosmos 2298 Rocket 4.3 23:06:19 10° SSW 23:11:39 72° WNW 23:16:59 10° NNE
ATLAS 3B R/B 2.8 23:05:03 10° NW 23:12:16 86° SW 23:18:29 13° SE
Cosmos 1633 Rocket 3.8 23:08:58 10° SSW 23:13:15 53° WNW 23:17:33 10° N
Cosmos 1626 2.2 23:10:26 12° S 23:13:53 66° E 23:17:39 10° NNE
Cosmos 1900 4.3 23:09:35 10° NW 23:14:38 83° SW 23:18:50 14° SE
Cosmos 990 Rocket 4.0 23:14:47 10° SSW 23:19:52 68° ESE 23:25:01 10° NNE
USA 238 DEB 4.0 23:14:55 10° NW 23:21:59 69° NE 23:28:59 10° ESE
USA 238 4.0 23:15:01 10° NW 23:22:05 68° NE 23:29:05 10° ESE
Tiangong 1 3.4 23:21:16 10° SSW 23:21:28 11° SSW 23:21:28 11° SSW
FALCON 9 R/B 4.2 23:05:50 10° WSW 23:24:17 31° SSW 23:30:02 14° SSE
NOSS 3-1 (C) 3.6 23:19:32 10° SW 23:25:38 84° NW 23:32:33 10° NE
Cosmos 1933 3.4 23:23:35 10° N 23:27:40 75° E 23:30:44 17° SSE
Cosmos 1269 Rocket 4.1 23:25:17 10° NNW 23:30:38 80° WSW 23:34:54 16° SSE
COSMOS 2455 2.9 23:25:31 10° NW 23:31:33 73° SW 23:36:29 16° SSE
H-2A R/B 4.4 23:31:18 10° NE 23:33:59 16° E 23:36:09 12° ESE
H-2A R/B 3.0 23:29:26 10° S 23:34:34 44° W 23:39:47 10° NNW
Cosmos 389 Rocket 3.1 23:32:08 10° N 23:35:39 47° ENE 23:37:58 19° SE
Cosmos 1869 Rocket 4.2 23:33:33 17° SSE 23:36:38 41° E 23:40:52 10° NNE
Cosmos 2227 Rocket 2.2 23:36:23 10° SSW 23:42:02 79° ESE 23:47:44 10° NNE
CENTAUR R/B 4.5 23:38:50 10° NW 23:45:22 36° N 23:52:31 10° ENE
Cosmos 1455 3.7 23:42:12 10° NNW 23:45:33 30° W 23:48:54 10° SSW
CZ-4B R/B 3.0 23:44:29 14° ESE 23:46:50 26° ENE 23:49:43 10° N
GEOS 3 Rocket 3.6 23:44:09 13° SE 23:48:50 85° NE 23:54:03 10° NW
ALOS 2 3.4 23:46:38 15° SE 23:49:54 42° ENE 23:54:03 10° N
Cosmos 2333 Rocket 3.6 23:45:45 10° NW 23:50:39 30° WSW 23:55:18 11° SSW
SL-16 R/B 2.4 23:45:52 10° NW 23:51:31 64° WSW 23:55:45 18° SSE
SeaSat 1 2.4 23:49:07 18° SSE 23:52:54 84° WSW 23:57:52 10° NNW
Meteor 2-10 Rocket 4.4 23:48:01 10° N 23:53:20 45° ENE 23:57:49 15° SE
Cosmos 1048 Rocket 4.2 23:48:33 10° NNW 23:53:52 66° WSW 23:57:50 18° S
